Weather History for KPOU - October, 2014

Change the Weather History Date:

Sunday, October 26, 2014

  Actual Average Record
Temperature  
Mean Temperature 51 °F 48 °F  
Max Temperature 58 °F 60 °F 81 °F (1963)
Min Temperature 43 °F 36 °F 19 °F (1952)
Degree Days  
Heating Degree Days 14 17  
Month to date heating degree days 244 346  
Since 1 July heating degree days 338 486  
Cooling Degree Days 0 0  
Month to date cooling degree days 13 0  
Year to date cooling degree days 696 668  
Moisture  
Dew Point 41 °F    
Average Humidity 70    
Maximum Humidity 92    
Minimum Humidity 47    
Precipitation  
Precipitation 0.03 in 0.14 in 1.35 in (1958)
Month to date precipitation 3.70 3.81  
Year to date precipitation 28.89 38.87  
Sea Level Pressure  
Sea Level Pressure 29.63 in    
Wind  
Wind Speed 10 mph (West)    
Max Wind Speed 25 mph    
Max Gust Speed 38 mph    
Visibility 8 miles    
Events Rain    
T = Trace of Precipitation, MM = Missing Value Source: NWS Daily Summary

Daily Weather History Graph

Daily Weather History Graph

Search for Another Location

Airport or City:

Trip Planner

Search our weather history database for the weather conditions in past years. The results will help you decide how hot, cold, wet, or windy it might be!

Date:

Astronomy

Oct. 26, 2014 Rise Set
Actual Time 7:20 AM EDT 5:58 PM EDT
Civil Twilight 6:51 AM EDT 6:26 PM EDT
Nautical Twilight 6:19 AM EDT 6:59 PM EDT
Astronomical Twilight 5:47 AM EDT 7:31 PM EDT
Moon 9:57 AM EDT (10/26) 8:05 PM EDT (10/26)
Length of Visible Light 11h 34m
Length of Day
10h 37m
Waxing Crescent, 8% of the Moon is Illuminated
Oct 26
Waxing Crescent
Oct 30
First Quarter
Nov 6
Full
Nov 14
Last Quarter
Nov 22
New

Hourly Weather History & Observations

Time (EDT) Temp. Windchill Dew Point Humidity Pressure Visibility Wind Dir Wind Speed Gust Speed Precip Events Conditions
12:53 AM 57.9 °F - 45.0 °F 62% 29.55 in 10.0 mi NW 6.9 mph - N/A   Scattered Clouds
1:53 AM 48.9 °F - 44.1 °F 83% 29.52 in 10.0 mi Calm Calm - N/A   Clear
2:53 AM 44.1 °F - 41.0 °F 89% 29.52 in 10.0 mi Calm Calm - N/A   Clear
3:20 AM 51.1 °F - 44.1 °F 77% 29.58 in 10.0 mi North 9.2 mph - 0.02 in Rain Light Rain
3:53 AM 48.9 °F - 45.0 °F 86% 29.55 in 10.0 mi SSW 3.5 mph - 0.03 in   Mostly Cloudy
4:45 AM 45.0 °F - 43.0 °F 93% 29.57 in 1.8 mi Calm Calm - N/A   Clear
4:53 AM 45.0 °F - 43.0 °F 93% 29.57 in 3.0 mi Calm Calm - N/A   Clear
4:59 AM 44.1 °F 42.5 °F 42.1 °F 93% 29.58 in 1.8 mi ENE 3.5 mph - N/A   Partly Cloudy
5:05 AM 43.0 °F - 42.1 °F 97% 29.59 in 0.8 mi Calm Calm - N/A   Mist
5:13 AM 45.0 °F 43.5 °F 43.0 °F 93% 29.59 in 1.2 mi SSW 3.5 mph - N/A   Partly Cloudy
5:16 AM 45.0 °F 42.6 °F 43.0 °F 93% 29.59 in 3.0 mi SSW 4.6 mph - N/A   Clear
5:53 AM 48.0 °F - 42.1 °F 80% 29.58 in 10.0 mi SW 10.4 mph - N/A   Clear
6:53 AM 48.0 °F - 39.9 °F 74% 29.57 in 10.0 mi WSW 10.4 mph - N/A   Clear
7:53 AM 50.0 °F - 39.9 °F 68% 29.59 in 10.0 mi WSW 9.2 mph - N/A   Clear
8:53 AM 51.1 °F - 39.9 °F 66% 29.60 in 10.0 mi WSW 10.4 mph - N/A   Mostly Cloudy
9:53 AM 53.1 °F - 39.0 °F 59% 29.60 in 10.0 mi WSW 10.4 mph - N/A   Mostly Cloudy
10:53 AM 54.0 °F - 37.9 °F 55% 29.60 in 10.0 mi West 15.0 mph 23.0 mph N/A   Overcast
11:53 AM 55.0 °F - 37.0 °F 51% 29.62 in 10.0 mi West 9.2 mph - N/A   Overcast
12:53 PM 55.0 °F - 37.9 °F 53% 29.62 in 10.0 mi West 8.1 mph - N/A   Overcast
1:53 PM 55.9 °F - 37.0 °F 49% 29.61 in 10.0 mi West 15.0 mph 24.2 mph N/A   Overcast
2:53 PM 57.0 °F - 37.9 °F 49% 29.62 in 10.0 mi WNW 11.5 mph 20.7 mph N/A   Overcast
3:53 PM 57.9 °F - 37.9 °F 47% 29.65 in 10.0 mi WNW 15.0 mph 25.3 mph N/A   Overcast
4:53 PM 55.9 °F - 39.0 °F 53% 29.68 in 10.0 mi West 16.1 mph - N/A   Overcast
5:53 PM 54.0 °F - 39.0 °F 57% 29.70 in 10.0 mi West 13.8 mph 21.9 mph N/A   Overcast
6:53 PM 54.0 °F - 39.0 °F 57% 29.73 in 10.0 mi West 11.5 mph - N/A   Overcast
7:53 PM 54.0 °F - 39.0 °F 57% 29.76 in 10.0 mi West 11.5 mph - N/A   Overcast
8:53 PM 53.1 °F - 39.0 °F 59% 29.77 in 10.0 mi West 10.4 mph - N/A   Mostly Cloudy
9:53 PM 52.0 °F - 39.0 °F 61% 29.78 in 10.0 mi West 9.2 mph - N/A   Mostly Cloudy
10:53 PM 53.1 °F - 39.9 °F 61% 29.79 in 10.0 mi West 13.8 mph - N/A   Clear
11:53 PM 52.0 °F - 39.9 °F 63% 29.80 in 10.0 mi West 8.1 mph - N/A   Mostly Cloudy